User: anonymous   Login
Location: ??????
(33.3472°N, 35.4764°E)
Time: 04:01:48
(UTC+00:00)
Language:

ADEOS - Orbit

View from above orbital plane
View from above orbital plane
View from above satellite
View from above satellite

Ground track
Ground track

The orbit data is extracted from the following two-line orbital elements,

1 24277U 96046A   19291.43424165 -.00000023  00000-0  89450-5 0  9995
2 24277  98.8394 257.8072 0001656  38.2373 321.8925 14.29439749208114
Epoch (UTC): 18 October 2019 10:25:18
Eccentricity: 0.0001656
inclination: 98.8394°
perigee height: 792 km
apogee height: 795 km
right ascension of ascending node: 257.8072°
argument of perigee: 38.2373°
revolutions per day: 14.29439749
mean anomaly at epoch: 321.8925°
orbit number at epoch: 20811

The dashed part of the orbit path shows where the satellite is in the earth's shadow,  

DLR